Sacramento / Mc Clellan, CA

4:36 AM PDT on August 21, 2017 (GMT -0700)
McClellan

Weather History for KMCC - February, 2014

Change the Weather History Date:

Wednesday, February 19, 2014

  Actual Average (KMHR) Record (KMHR)
Temperature  
Mean Temperature 52 °F -  
Max Temperature 62 °F 56 °F 64 °F (2007)
Min Temperature 42 °F 40 °F 33 °F (2012)
Degree Days  
Heating Degree Days 13    
Growing Degree Days 2 (Base 50)    
Moisture  
Dew Point 42 °F    
Average Humidity 67    
Maximum Humidity 94    
Minimum Humidity 30    
Precipitation  
Precipitation 0.00 in - - ()
Sea Level Pressure  
Sea Level Pressure 30.14 in    
Wind  
Wind Speed 8 mph (NW)    
Max Wind Speed 15 mph    
Max Gust Speed 21 mph    
Visibility 10 miles    
Events      
Averages and records for this station are not official NWS values.
T = Trace of Precipitation, MM = Missing Value Source: NWS Daily Summary

Daily Weather History Graph

Daily Weather History Graph

Search for Another Location

Airport or City:

Trip Planner

Search our weather history database for the weather conditions in past years. The results will help you decide how hot, cold, wet, or windy it might be!

Date:

Astronomy

Feb. 19, 2014 Rise Set
Actual Time 6:51 AM PST 5:47 PM PST
Civil Twilight 6:24 AM PST 6:15 PM PST
Nautical Twilight 5:53 AM PST 6:46 PM PST
Astronomical Twilight 5:22 AM PST 7:16 PM PST
Moon 10:43 PM PST (2/19) 9:03 AM PST (2/19)
Length of Visible Light 11h 50m
Length of Day
10h 56m
Waning Gibbous, 79% of the Moon is Illuminated
Feb 19
Waning Gibbous
Feb 22
Last Quarter
Mar 1
New
Mar 8
First Quarter
Mar 16
Full

Hourly Weather History & Observations

Time (PST) Temp. Windchill Dew Point Humidity Pressure Visibility Wind Dir Wind Speed Gust Speed Precip Events Conditions
12:15 AM 51.8 °F - 46.4 °F 82% 30.10 in 10.0 mi South 6.9 mph - N/A   Clear
12:35 AM 50.0 °F - 46.4 °F 87% 30.08 in 10.0 mi SE 8.1 mph - N/A   Clear
12:55 AM 50.0 °F - 46.4 °F 87% 30.09 in 10.0 mi ESE 9.2 mph - N/A   Clear
1:15 AM 50.0 °F - 46.4 °F 87% 30.10 in 10.0 mi ESE 10.4 mph - N/A   Partly Cloudy
1:35 AM 50.0 °F - 46.4 °F 87% 30.10 in 10.0 mi SE 12.7 mph - N/A   Partly Cloudy
1:55 AM 50.0 °F - 46.4 °F 87% 30.11 in 10.0 mi SSE 10.4 mph - N/A   Partly Cloudy
2:15 AM 50.0 °F - 46.4 °F 87% 30.11 in 10.0 mi SE 11.5 mph - N/A   Scattered Clouds
2:35 AM 50.0 °F - 46.4 °F 87% 30.11 in 10.0 mi SE 10.4 mph - N/A   Partly Cloudy
2:55 AM 50.0 °F - 46.4 °F 87% 30.10 in 10.0 mi SE 12.7 mph - N/A   Clear
3:15 AM 50.0 °F - 46.4 °F 87% 30.10 in 10.0 mi SSE 8.1 mph - N/A   Clear
3:35 AM 50.0 °F - 46.4 °F 87% 30.09 in 10.0 mi SSE 11.5 mph - N/A   Clear
3:55 AM 50.0 °F - 46.4 °F 87% 30.08 in 10.0 mi SE 12.7 mph - N/A   Clear
4:15 AM 50.0 °F - 46.4 °F 87% 30.09 in 10.0 mi SE 10.4 mph - N/A   Partly Cloudy
4:35 AM 48.2 °F - 46.4 °F 93% 30.09 in 10.0 mi SSE 9.2 mph - N/A   Partly Cloudy
4:55 AM 48.2 °F - 46.4 °F 93% 30.10 in 10.0 mi SSE 10.4 mph - N/A   Partly Cloudy
5:15 AM 48.2 °F - 46.4 °F 93% 30.10 in 10.0 mi SSE 11.5 mph - N/A   Clear
5:35 AM 48.2 °F - 46.4 °F 93% 30.10 in 10.0 mi SE 8.1 mph - N/A   Partly Cloudy
5:55 AM 50.0 °F - 48.2 °F 94% 30.10 in 10.0 mi ESE 9.2 mph - N/A   Mostly Cloudy
6:15 AM 50.0 °F - 48.2 °F 94% 30.11 in 10.0 mi SE 8.1 mph - N/A   Overcast
6:35 AM 50.0 °F - 48.2 °F 94% 30.12 in 10.0 mi SE 8.1 mph - N/A   Mostly Cloudy
6:55 AM 50.0 °F - 48.2 °F 94% 30.13 in 9.0 mi SSE 5.8 mph - N/A   Scattered Clouds
7:15 AM 50.0 °F - 48.2 °F 94% 30.14 in 9.0 mi SE 6.9 mph - N/A   Mostly Cloudy
7:35 AM 50.0 °F - 48.2 °F 94% 30.15 in 9.0 mi Calm Calm - N/A   Mostly Cloudy
7:55 AM 51.8 °F - 48.2 °F 88% 30.16 in 10.0 mi Calm Calm - N/A   Overcast
8:15 AM 51.8 °F - 50.0 °F 94% 30.15 in 10.0 mi West 4.6 mph - N/A   Overcast
8:35 AM 53.6 °F - 48.2 °F 82% 30.16 in 9.0 mi WSW 3.5 mph - N/A   Overcast
8:55 AM 53.6 °F - 46.4 °F 77% 30.16 in 10.0 mi WNW 3.5 mph - N/A   Mostly Cloudy
9:15 AM 53.6 °F - 48.2 °F 82% 30.17 in 10.0 mi West 3.5 mph - N/A   Overcast
9:35 AM 53.6 °F - 48.2 °F 82% 30.17 in 10.0 mi West 3.5 mph - N/A   Mostly Cloudy
9:55 AM 55.4 °F - 48.2 °F 77% 30.17 in 10.0 mi WSW 4.6 mph - N/A   Scattered Clouds
10:15 AM 55.4 °F - 48.2 °F 77% 30.18 in 10.0 mi SW 3.5 mph - N/A   Partly Cloudy
10:35 AM 57.2 °F - 48.2 °F 72% 30.18 in 10.0 mi WSW 6.9 mph - N/A   Scattered Clouds
10:55 AM 57.2 °F - 48.2 °F 72% 30.18 in 9.0 mi West 6.9 mph - N/A   Overcast
11:15 AM 57.2 °F - 48.2 °F 72% 30.18 in 10.0 mi West 5.8 mph - N/A   Scattered Clouds
11:35 AM 57.2 °F - 48.2 °F 72% 30.19 in 10.0 mi NNW 6.9 mph - N/A   Scattered Clouds
11:55 AM 59.0 °F - 48.2 °F 67% 30.19 in 10.0 mi NNW 9.2 mph - N/A   Scattered Clouds
12:15 PM 59.0 °F - 48.2 °F 67% 30.17 in 10.0 mi Calm Calm - N/A   Partly Cloudy
12:35 PM 59.0 °F - 48.2 °F 67% 30.16 in 10.0 mi NW 6.9 mph - N/A   Clear
12:55 PM 59.0 °F - 46.4 °F 63% 30.16 in 10.0 mi NW 8.1 mph 20.7 mph N/A   Scattered Clouds
1:15 PM 60.8 °F - 46.4 °F 59% 30.15 in 10.0 mi NW 12.7 mph 16.1 mph N/A   Partly Cloudy
1:35 PM 62.6 °F - 44.6 °F 52% 30.15 in 10.0 mi NNW 11.5 mph 17.3 mph N/A   Clear
1:55 PM 62.6 °F - 42.8 °F 48% 30.14 in 10.0 mi NNW 11.5 mph 17.3 mph N/A   Clear
2:15 PM 62.6 °F - 41.0 °F 45% 30.13 in 10.0 mi NNW 10.4 mph - N/A   Clear
2:35 PM 62.6 °F - 39.2 °F 42% 30.13 in 10.0 mi NNW 10.4 mph - N/A   Clear
2:55 PM 62.6 °F - 37.4 °F 39% 30.13 in 10.0 mi NNW 12.7 mph 19.6 mph N/A   Clear
3:15 PM 62.6 °F - 35.6 °F 37% 30.13 in 10.0 mi North 11.5 mph 18.4 mph N/A   Clear
3:35 PM 62.6 °F - 35.6 °F 37% 30.12 in 10.0 mi NW 15.0 mph - N/A   Clear
3:55 PM 62.6 °F - 32.0 °F 32% 30.13 in 10.0 mi NNW 11.5 mph - N/A   Clear
4:15 PM 62.6 °F - 32.0 °F 32% 30.14 in 10.0 mi NNW 13.8 mph 17.3 mph N/A   Clear
4:35 PM 62.6 °F - 32.0 °F 32% 30.13 in 10.0 mi North 9.2 mph - N/A   Clear
4:55 PM 62.6 °F - 30.2 °F 30% 30.13 in 10.0 mi North 10.4 mph - N/A   Clear
5:15 PM 59.0 °F - 32.0 °F 36% 30.13 in 10.0 mi North 6.9 mph - N/A   Clear
5:35 PM 59.0 °F - 32.0 °F 36% 30.13 in 10.0 mi North 5.8 mph - N/A   Clear
5:55 PM 55.4 °F - 32.0 °F 41% 30.13 in 10.0 mi NNW 4.6 mph - N/A   Clear
6:15 PM 53.6 °F - 32.0 °F 44% 30.14 in 10.0 mi North 6.9 mph - N/A   Clear
6:35 PM 53.6 °F - 33.8 °F 47% 30.15 in 10.0 mi NNW 5.8 mph - N/A   Clear
6:55 PM 53.6 °F - 35.6 °F 51% 30.15 in 10.0 mi NW 6.9 mph - N/A   Clear
7:15 PM 53.6 °F - 32.0 °F 44% 30.15 in 10.0 mi NW 6.9 mph - N/A   Clear
7:35 PM 51.8 °F - 33.8 °F 50% 30.16 in 10.0 mi NNW 4.6 mph - N/A   Clear
7:55 PM 51.8 °F - 33.8 °F 50% 30.16 in 10.0 mi WNW 3.5 mph - N/A   Clear
8:15 PM 51.8 °F - 33.8 °F 50% 30.16 in 10.0 mi Calm Calm - N/A   Clear
8:35 PM 50.0 °F - 33.8 °F 54% 30.17 in 10.0 mi NW 3.5 mph - N/A   Clear
8:55 PM 50.0 °F - 32.0 °F 50% 30.18 in 10.0 mi Calm Calm - N/A   Clear
9:15 PM 50.0 °F - 32.0 °F 50% 30.18 in 10.0 mi NNW 3.5 mph - N/A   Clear
9:35 PM 48.2 °F - 32.0 °F 54% 30.18 in 10.0 mi NNW 4.6 mph - N/A   Clear
9:55 PM 48.2 °F - 33.8 °F 58% 30.19 in 10.0 mi NNW 3.5 mph - N/A   Clear
10:15 PM 44.6 °F 43.1 °F 33.8 °F 66% 30.20 in 10.0 mi NNW 3.5 mph - N/A   Clear
10:35 PM 46.4 °F 44.3 °F 32.0 °F 57% 30.20 in 10.0 mi North 4.6 mph - N/A   Clear
10:55 PM 42.8 °F 38.6 °F 32.0 °F 66% 30.20 in 10.0 mi North 6.9 mph - N/A   Clear
11:15 PM 44.6 °F 40.7 °F 33.8 °F 66% 30.20 in 10.0 mi NNW 6.9 mph - N/A   Clear
11:35 PM 46.4 °F 44.3 °F 35.6 °F 66% 30.21 in 10.0 mi WNW 4.6 mph - N/A   Clear
11:55 PM 46.4 °F 42.9 °F 33.8 °F 62% 30.21 in 10.0 mi NNW 6.9 mph - N/A   Clear